Weather History for Diyarbakir, Turkey

Change the Weather History Date:

Wednesday, August 21, 2013

  Actual Average Record
Temperature  
Mean Temperature 82 °F -  
Max Temperature 97 °F 94 °F 107 °F (1999)
Min Temperature 68 °F 64 °F 41 °F (1997)
Cooling Degree Days 18    
Growing Degree Days 32 (Base 50)    
Moisture  
Dew Point 42 °F    
Average Humidity 24    
Maximum Humidity 46    
Minimum Humidity 6    
Precipitation  
Precipitation 0.00 in 0.00 in - ()
Sea Level Pressure  
Sea Level Pressure 29.70 in    
Wind  
Wind Speed 6 mph ()    
Max Wind Speed 13 mph    
Max Gust Speed 18 mph    
Visibility 7.7 miles    
Events      
Averages and records for this station are not official NWS values.
T = Trace of Precipitation, MM = Missing Value Source: Averaged Metar Reports

Daily Weather History Graph

Daily Weather History Graph

Search for Another Location

Airport:

Trip Planner

Search our weather history database for the weather conditions in past years. The results will help you decide how hot, cold, wet, or windy it might be!

Date:

Astronomy

Aug. 21, 2013 Rise Set
Actual Time 5:39 AM EEST 7:04 PM EEST
Civil Twilight 5:12 AM EEST 7:31 PM EEST
Nautical Twilight 4:39 AM EEST 8:04 PM EEST
Astronomical Twilight 4:04 AM EEST 8:39 PM EEST
Moon 7:01 PM EEST (8/21) 5:53 AM EEST (8/21)
Length of Visible Light 14h 19m
Length of Day
13h 24m
Full, 100% of the Moon is Illuminated
Aug 21
Full
Aug 28
Last Quarter
Sep 5
New
Sep 12
First Quarter
Sep 19
Full

Hourly Weather History & Observations

Time (EEST) Temp. Dew Point Humidity Pressure Visibility Wind Dir Wind Speed Gust Speed Precip Events Conditions
12:20 AM 80.6 °F 46.4 °F 30% 29.71 in - NW 10.4 mph - N/A   Clear
12:50 AM 80.6 °F 46.4 °F 30% 29.71 in - NW 9.2 mph - N/A   Clear
1:20 AM 80.6 °F 46.4 °F 30% 29.71 in - NNW 8.1 mph - N/A   Clear
1:50 AM 78.8 °F 46.4 °F 32% 29.71 in - NW 9.2 mph - N/A   Clear
2:20 AM 77.0 °F 46.4 °F 34% 29.71 in - Variable 5.8 mph - N/A   Clear
2:50 AM 75.2 °F 46.4 °F 36% 29.71 in - West 4.6 mph - N/A   Clear
3:00 AM 75 °F 47 °F 26% 29.55 in 12 mi West 4.6 mph - -  
3:20 AM 73.4 °F 46.4 °F 38% 29.71 in - West 9.2 mph - N/A   Clear
3:50 AM 75.2 °F 48.2 °F 38% 29.71 in - WNW 9.2 mph - N/A   Clear
4:20 AM 71.6 °F 48.2 °F 43% 29.71 in - North 3.5 mph - N/A   Clear
4:50 AM 71.6 °F 46.4 °F 41% 29.71 in - Variable 2.3 mph - N/A   Clear
5:20 AM 69.8 °F 46.4 °F 43% 29.71 in - Variable 2.3 mph - N/A   Clear
5:50 AM 69.8 °F 44.6 °F 40% 29.74 in - NNE 2.3 mph - N/A   Clear
6:20 AM 69.8 °F 48.2 °F 46% 29.74 in - East 3.5 mph - N/A   Clear
6:50 AM 71.6 °F 46.4 °F 41% 29.74 in - Variable 1.2 mph - N/A   Clear
7:20 AM 75.2 °F 44.6 °F 34% 29.74 in - Variable 1.2 mph - N/A   Clear
7:50 AM 78.8 °F 44.6 °F 30% 29.74 in - Variable 1.2 mph - N/A   Clear
8:20 AM 80.6 °F 44.6 °F 28% 29.74 in - NNW 4.6 mph - N/A   Clear
8:50 AM 82.4 °F 46.4 °F 28% 29.74 in - NE 4.6 mph - N/A   Clear
9:00 AM 83 °F 45 °F 16% 29.60 in 12 mi NE 4.6 mph - -  
9:20 AM 84.2 °F 46.4 °F 27% 29.74 in - NE 5.8 mph - N/A   Clear
9:50 AM 87.8 °F 44.6 °F 22% 29.74 in - East 6.9 mph - N/A   Clear
10:20 AM 89.6 °F 46.4 °F 22% 29.74 in - East 6.9 mph - N/A   Clear
10:50 AM 89.6 °F 46.4 °F 22% 29.74 in - East 5.8 mph - N/A   Clear
11:20 AM 91.4 °F 46.4 °F 21% 29.74 in - SSE 4.6 mph - N/A   Clear
11:50 AM 91.4 °F 41.0 °F 17% 29.71 in - Variable 4.6 mph - N/A   Clear
12:20 PM 93.2 °F 42.8 °F 17% 29.71 in - East 6.9 mph - N/A   Clear
12:50 PM 93.2 °F 41.0 °F 16% 29.71 in - Variable 6.9 mph - N/A   Clear
1:20 PM 95.0 °F 39.2 °F 14% 29.71 in - Variable 6.9 mph 18.4 mph N/A   Clear
1:50 PM 95.0 °F 35.6 °F 12% 29.71 in 6.2 mi ENE 12.7 mph - N/A   Partly Cloudy
2:20 PM 95.0 °F 35.6 °F 12% 29.71 in 6.2 mi East 10.4 mph - N/A   Partly Cloudy
2:50 PM 95.0 °F 37.4 °F 13% 29.68 in 6.2 mi Variable 5.8 mph - N/A   Partly Cloudy
3:00 PM 95 °F 36 °F 6% 29.54 in 12 mi ESE 5.8 mph - -   Scattered Clouds
3:20 PM 95.0 °F 35.6 °F 12% 29.68 in 6.2 mi NW 11.5 mph - N/A   Partly Cloudy
3:50 PM 96.8 °F 35.6 °F 12% 29.68 in 6.2 mi WNW 8.1 mph - N/A   Partly Cloudy
4:20 PM 96.8 °F 37.4 °F 13% 29.68 in 6.2 mi Variable 2.3 mph - N/A   Partly Cloudy
4:50 PM 95.0 °F 37.4 °F 13% 29.68 in 6.2 mi ENE 4.6 mph - N/A   Partly Cloudy
5:20 PM 95.0 °F 37.4 °F 13% 29.68 in 6.2 mi SE 6.9 mph - N/A   Partly Cloudy
5:50 PM 95.0 °F 37.4 °F 13% 29.68 in 6.2 mi ENE 5.8 mph - N/A   Partly Cloudy
6:20 PM 95.0 °F 35.6 °F 12% 29.68 in 6.2 mi Calm Calm - N/A   Partly Cloudy
6:50 PM 91.4 °F 35.6 °F 14% 29.68 in 6.2 mi Calm Calm - N/A   Partly Cloudy
7:20 PM 89.6 °F 35.6 °F 15% 29.68 in - SSW 3.5 mph - N/A   Clear
7:50 PM 87.8 °F 35.6 °F 16% 29.71 in - WNW 2.3 mph - N/A   Clear
8:20 PM 84.2 °F 35.6 °F 18% 29.71 in - Variable 2.3 mph - N/A   Clear
8:50 PM 84.2 °F 35.6 °F 18% 29.71 in - WNW 4.6 mph - N/A   Clear
9:00 PM 83 °F 34 °F 9% 29.58 in 12 mi WNW 4.6 mph - -  
9:20 PM 80.6 °F 37.4 °F 21% 29.71 in - NW 5.8 mph - N/A   Clear
9:50 PM 78.8 °F 39.2 °F 24% 29.71 in - West 8.1 mph - N/A   Clear
10:20 PM 78.8 °F 41.0 °F 26% 29.71 in - WNW 6.9 mph - N/A   Clear
10:50 PM 77.0 °F 41.0 °F 28% 29.71 in - WNW 4.6 mph - N/A   Clear
11:20 PM 80.6 °F 44.6 °F 28% 29.71 in - NW 9.2 mph - N/A   Clear
11:50 PM 80.6 °F 44.6 °F 28% 29.74 in - NNW 9.2 mph - N/A   Clear